Aérodrome :
LOGIN :

S'inscrire | Disclaimer

   EN    FR    IT 

 










Légende :    VFR   VFR Marginal   IFR   IFR Intensif   IFR Très Intensif
Visi : 
Plafond : 
>= 8 km
>= 3000ft
5 à 8 km
1000 à 3000 ft
1500m à 5 km
500 à 1000 ft
800 à 1500m
200 à 500 ft
< 800m
< 200 ft
Symboles :   Orages  Brouillard  Fortes neiges  Fortes précipitations  Vent > 20 kt
SIGMETs :   Divers  Orages  Givrage  Turbulence  Onde Orograph.  Cendres Volcan.







- Altitude de l'aérodrome : 226 ft
- Code IATA : BEX


EGUB - RAF Benson

DERNIER METAR :
  • 250550Z 23002KT CAVOK 14/10 Q1026 BLU NOSIG

METARs EXPIRÉS :
  • 250450Z AUTO 18003KT 9999 // NCD 10/08 Q1026
  • 250350Z AUTO 00000KT 9999 // NCD 09/08 Q1025
  • 250250Z AUTO 19002KT 9999 // NCD 10/08 Q1025

TAF TAF EGUB
Valide du 25 à 06h jusqu'au 25 à 15h UTC


250533Z 2506/2515 23003KT CAVOK
ATIS : +44 1491-837766 (x7524)
Pas de NOTAMs connus pour ce terrain.



MET'MAP, la Météo Aéronautique d'un coup d'oeil ! - Copyright ORBIFLY Décembre 2007 - Disclaimer

ORBIFLY MET'MAP TEAM :

Programmation & Développement : Alexandra Zaïnal
Conception & Développement : Baudouin d'Aumeries
Co-Programmation & Développement : Marc-Olivier Méhu
Soutien technique & logistique : Manuel Goepfert

Contact : metmap@orbifly.com




SOURCES & CREDITS :

   NOAA